Fredericksburg, VA

8:49 AM EST on December 13, 2019 (GMT -0500)
Shannon

Weather History for KEZF - October, 2019

Change the Weather History Date:

Sunday, October 6, 2019

  Actual Average (KNYG) Record (KNYG)
Temperature  
Mean Temperature 67 °F -  
Max Temperature 73 °F 68 °F 87 °F (1997)
Min Temperature 61 °F 50 °F 41 °F (2004)
Cooling Degree Days 2    
Growing Degree Days 17 (Base 50)    
Moisture  
Dew Point 61 °F    
Average Humidity 83    
Maximum Humidity 93    
Minimum Humidity 71    
Precipitation  
Precipitation 0.00 in - - ()
Sea Level Pressure  
Sea Level Pressure 30.25 in    
Wind  
Wind Speed 2 mph ()    
Max Wind Speed 10 mph    
Max Gust Speed 17 mph    
Visibility 10.0 miles    
Events      
Averages and records for this station are not official NWS values.
T = Trace of Precipitation, MM = Missing Value Source: Averaged Metar Reports

Daily Weather History Graph

Daily Weather History Graph

Search for Another Location

Airport or City:

Astronomy

Oct. 06, 2019 Rise Set
Actual Time 7:09 AM EDT 6:45 PM EDT
Civil Twilight 6:43 AM EDT 7:11 PM EDT
Nautical Twilight 6:12 AM EDT 7:42 PM EDT
Astronomical Twilight 5:42 AM EDT 8:12 PM EDT
Moon 3:16 PM EDT (10/6) 12:12 AM EDT (10/6)
Length of Visible Light 12h 28m
Length of Day
11h 35m
First Quarter, 59% of the Moon is Illuminated
Oct 6
First Quarter
Oct 13
Full
Oct 21
Last Quarter
Oct 27
New
Nov 4
First Quarter

Hourly Weather History & Observations

Time (EDT) Temp. Dew Point Humidity Pressure Visibility Wind Dir Wind Speed Gust Speed Precip Events Conditions
12:15 AM 61.7 °F 55.4 °F 80% 30.30 in 10.0 mi Calm Calm - N/A   Overcast
12:35 AM 61.7 °F 55.4 °F 80% 30.30 in 10.0 mi Calm Calm - N/A   Overcast
12:55 AM 61.7 °F 55.8 °F 81% 30.30 in 10.0 mi Calm Calm - N/A   Overcast
1:35 AM 61.7 °F 56.1 °F 82% 30.28 in 10.0 mi Calm Calm - N/A   Overcast
1:55 AM 61.3 °F 56.1 °F 83% 30.29 in 10.0 mi Calm Calm - N/A   Overcast
2:15 AM 61.2 °F 56.3 °F 84% 30.28 in 10.0 mi Calm Calm - N/A   Overcast
2:35 AM 61.2 °F 56.3 °F 84% 30.28 in 10.0 mi Calm Calm - N/A   Overcast
2:55 AM 61.2 °F 56.5 °F 85% 30.27 in 10.0 mi Calm Calm - N/A   Overcast
3:15 AM 61.3 °F 56.3 °F 83% 30.27 in 10.0 mi Calm Calm - N/A   Overcast
3:35 AM 61.2 °F 56.5 °F 85% 30.26 in 10.0 mi Calm Calm - N/A   Overcast
3:55 AM 61.0 °F 56.7 °F 86% 30.26 in 10.0 mi Calm Calm - N/A   Overcast
4:15 AM 61.3 °F 56.7 °F 85% 30.26 in 10.0 mi Calm Calm - N/A   Overcast
4:35 AM 61.5 °F 56.7 °F 84% 30.26 in 10.0 mi Calm Calm - N/A   Overcast
4:55 AM 61.7 °F 57.2 °F 85% 30.26 in 10.0 mi Calm Calm - N/A   Overcast
5:15 AM 61.3 °F 57.4 °F 87% 30.26 in 10.0 mi Calm Calm - N/A   Overcast
5:35 AM 61.7 °F 57.4 °F 86% 30.26 in 10.0 mi Calm Calm - N/A   Overcast
5:55 AM 61.5 °F 58.1 °F 89% 30.26 in 10.0 mi Calm Calm - N/A   Overcast
6:15 AM 61.5 °F 57.6 °F 87% 30.27 in 10.0 mi Calm Calm - N/A   Overcast
6:35 AM 61.7 °F 57.7 °F 87% 30.26 in 10.0 mi Calm Calm - N/A   Overcast
6:55 AM 61.7 °F 58.8 °F 90% 30.27 in 10.0 mi Calm Calm - N/A   Overcast
7:15 AM 61.7 °F 58.5 °F 89% 30.26 in 10.0 mi Calm Calm - N/A   Overcast
7:35 AM 61.2 °F 58.3 °F 90% 30.27 in 10.0 mi Calm Calm - N/A   Overcast
7:55 AM 61.3 °F 58.3 °F 90% 30.28 in 10.0 mi Calm Calm - N/A   Overcast
8:15 AM 61.9 °F 58.6 °F 89% 30.28 in 10.0 mi Calm Calm - N/A   Overcast
8:35 AM 62.6 °F 58.8 °F 87% 30.28 in 10.0 mi Calm Calm - N/A   Overcast
8:55 AM 62.6 °F 58.8 °F 87% 30.29 in 10.0 mi Calm Calm - N/A   Overcast
9:15 AM 63.9 °F 59.0 °F 84% 30.29 in 10.0 mi SSW 3.5 mph - N/A   Overcast
9:35 AM 64.6 °F 59.0 °F 82% 30.28 in 10.0 mi Calm Calm - N/A   Overcast
9:55 AM 65.7 °F 59.4 °F 80% 30.28 in 10.0 mi Calm Calm - N/A   Overcast
10:15 AM 66.2 °F 60.1 °F 81% 30.29 in 10.0 mi Calm Calm - N/A   Overcast
10:35 AM 66.7 °F 60.3 °F 80% 30.28 in 10.0 mi Calm Calm - N/A   Overcast
10:55 AM 68.7 °F 61.3 °F 77% 30.28 in 10.0 mi South 4.6 mph - N/A   Overcast
11:15 AM 69.6 °F 61.9 °F 76% 30.29 in 10.0 mi SSW 4.6 mph - N/A   Overcast
11:35 AM 70.5 °F 62.1 °F 74% 30.28 in 10.0 mi South 9.2 mph - N/A   Overcast
11:55 AM 70.2 °F 62.2 °F 76% 30.28 in 10.0 mi SSW 6.9 mph - N/A   Overcast
12:15 PM 70.0 °F 62.1 °F 76% 30.28 in 10.0 mi South 10.4 mph - N/A   Overcast
12:35 PM 70.2 °F 62.6 °F 77% 30.28 in 10.0 mi South 8.1 mph - N/A   Overcast
12:55 PM 70.3 °F 62.6 °F 76% 30.27 in 10.0 mi South 10.4 mph 17.3 mph N/A   Overcast
1:15 PM 70.5 °F 62.6 °F 76% 30.27 in 10.0 mi South 10.4 mph 16.1 mph N/A   Overcast
1:35 PM 71.6 °F 62.8 °F 74% 30.26 in 10.0 mi South 8.1 mph - N/A   Overcast
1:55 PM 72.7 °F 63.1 °F 72% 30.26 in 10.0 mi SSW 10.4 mph - N/A   Overcast
2:15 PM 72.9 °F 63.1 °F 71% 30.25 in 10.0 mi SSW 6.9 mph - N/A   Overcast
2:35 PM 72.7 °F 63.1 °F 72% 30.25 in 10.0 mi SSW 9.2 mph - N/A   Overcast
2:55 PM 73.2 °F 63.5 °F 71% 30.24 in 10.0 mi SSW 8.1 mph - N/A   Overcast
3:15 PM 72.9 °F 63.5 °F 72% 30.24 in 10.0 mi SSW 6.9 mph - N/A   Overcast
3:35 PM 72.5 °F 63.5 °F 73% 30.24 in 10.0 mi SSW 5.8 mph - N/A   Overcast
3:55 PM 72.5 °F 63.7 °F 74% 30.24 in 10.0 mi SSW 5.8 mph - N/A   Overcast
4:15 PM 72.5 °F 63.7 °F 74% 30.24 in 10.0 mi SSW 5.8 mph - N/A   Overcast
4:35 PM 72.5 °F 63.7 °F 74% 30.24 in 10.0 mi South 6.9 mph - N/A   Overcast
4:55 PM 72.1 °F 63.9 °F 75% 30.23 in 10.0 mi SSW 4.6 mph - N/A   Overcast
5:15 PM 71.8 °F 63.9 °F 76% 30.23 in 10.0 mi South 6.9 mph - N/A   Overcast
5:35 PM 72.0 °F 64.0 °F 76% 30.23 in 10.0 mi SSW 6.9 mph - N/A   Overcast
5:55 PM 71.6 °F 63.9 °F 76% 30.23 in 10.0 mi South 5.8 mph - N/A   Overcast
6:15 PM 71.2 °F 64.0 °F 78% 30.22 in 10.0 mi South 6.9 mph - N/A   Overcast
6:35 PM 70.3 °F 64.4 °F 81% 30.22 in 10.0 mi SSE 8.1 mph - N/A   Overcast
6:55 PM 70.0 °F 64.4 °F 82% 30.21 in 10.0 mi South 6.9 mph - N/A   Overcast
7:15 PM 69.8 °F 64.4 °F 83% 30.22 in 10.0 mi South 4.6 mph - N/A   Mostly Cloudy
7:35 PM 69.3 °F 64.6 °F 85% 30.21 in 10.0 mi SSE 4.6 mph - N/A   Mostly Cloudy
7:55 PM 68.4 °F 64.6 °F 88% 30.21 in 10.0 mi South 4.6 mph - N/A   Overcast
8:15 PM 68.2 °F 64.4 °F 88% 30.22 in 10.0 mi Calm Calm - N/A   Mostly Cloudy
8:35 PM 67.6 °F 64.6 °F 90% 30.22 in 10.0 mi Calm Calm - N/A   Overcast
8:55 PM 67.5 °F 64.6 °F 90% 30.22 in 10.0 mi Calm Calm - N/A   Overcast
9:15 PM 68.0 °F 64.8 °F 89% 30.22 in 10.0 mi South 3.5 mph - N/A   Overcast
9:35 PM 68.0 °F 64.8 °F 89% 30.22 in 10.0 mi SSW 3.5 mph - N/A   Overcast
9:55 PM 67.3 °F 64.8 °F 92% 30.22 in 10.0 mi SSW 3.5 mph - N/A   Overcast
10:15 PM 67.1 °F 64.8 °F 92% 30.23 in 10.0 mi Calm Calm - N/A   Overcast
10:35 PM 67.3 °F 64.9 °F 92% 30.23 in 10.0 mi SW 3.5 mph - N/A   Overcast
10:55 PM 67.5 °F 64.9 °F 92% 30.22 in 10.0 mi Calm Calm - N/A   Overcast
11:15 PM 67.6 °F 65.1 °F 92% 30.22 in 10.0 mi SW 3.5 mph - N/A   Overcast
11:35 PM 67.1 °F 64.9 °F 93% 30.21 in 10.0 mi SSE 4.6 mph - N/A   Overcast
11:55 PM 67.1 °F 64.9 °F 93% 30.22 in 10.0 mi Calm Calm - N/A   Overcast